{"data":{"norad_id":52872,"intl_designator":"2022-062AU","name":"STARLINK-4213","alt_names":[],"object_type":"PAYLOAD","status":"ACTIVE","operator":null,"country":"US","launch_date":"2022-06-17","launch_site_code":"AFETR","launch_vehicle":null,"mission":null,"orbit_class":"UNKNOWN","rcs_meters":null,"size_class":null,"mass_kg":null,"dimensions":null,"purposes":["comms"],"wikipedia_slug":null,"has_3d_model":false,"image_url":null,"decayed_at":null,"tle_current":{"epoch":"2026-09-19T13:40:40.401984Z","epoch_age_seconds":149185,"freshness":"FRESH","line1":"1 52872U 22062AU  26262.56991206  .00000462  00000+0  26641-4 0  9996","line2":"2 52872  53.1588 209.5903 0001216  79.8852 280.2286 15.31703876235529","mean_motion":15.31703876,"eccentricity":0.0001216,"inclination_deg":53.1588,"raan_deg":209.5903,"arg_perigee_deg":79.8852,"mean_anomaly_deg":280.2286,"bstar":2.6641e-5,"rev_number":23552,"period_min":94.012950059284,"perigee_km":469.89561905806,"apogee_km":471.56126313334,"semimajor_km":6848.8654410957,"source":"CELESTRAK","updated_at":"2026-09-20T09:00:40.136484Z"}}}